| time (UTC) | temp F | wind direction | speed knots | gust knots | rain 1hr in | rain 24hr in | rain mn in | humidity % | barometer mb |
| 20260502130541 | 42 | 135 | 1.7 | 2.6 | 0.00 | 0.00 | 0.00 | 53 | 1019.8 |
| 20260502123539 | 42 | 135 | 1.7 | 3.5 | 0.00 | 0.00 | 0.00 | 52 | 1019.6 |
| 20260502122539 | 42 | 0.0 | 0.0 | 0.00 | 0.00 | 0.00 | 52 | 1019.6 | |
| 20260502121519 | 42 | 135 | 1.7 | 2.6 | 0.00 | 0.00 | 0.00 | 52 | 1019.8 |
| 20260502120519 | 42 | 135 | 0.9 | 1.7 | 0.00 | 0.00 | 0.00 | 52 | 1019.8 |
| 20260502115518 | 42 | 0.0 | 0.0 | 0.00 | 0.00 | 0.00 | 52 | 1019.9 | |
| 20260502114519 | 42 | 135 | 0.9 | 2.6 | 0.00 | 0.00 | 0.00 | 53 | 1019.8 |
| 20260502113519 | 42 | 135 | 0.9 | 3.5 | 0.00 | 0.00 | 0.00 | 53 | 1019.8 |
| 20260502112518 | 42 | 135 | 1.7 | 2.6 | 0.00 | 0.00 | 0.00 | 52 | 1019.8 |
| 20260502111518 | 43 | 135 | 1.7 | 3.5 | 0.00 | 0.00 | 0.00 | 51 | 1019.9 |
| 20260502110519 | 43 | 135 | 1.7 | 2.6 | 0.00 | 0.00 | 0.00 | 50 | 1020.6 |
| 20260502105539 | 44 | 0.0 | 0.0 | 0.00 | 0.00 | 0.00 | 50 | 1020.7 | |
| 20260502104518 | 44 | 0.0 | 0.0 | 0.00 | 0.00 | 0.00 | 47 | 1020.5 | |
| 20260502103518 | 45 | 135 | 0.9 | 1.7 | 0.00 | 0.00 | 0.00 | 46 | 1020.1 |
| 20260502102518 | 45 | 135 | 0.9 | 2.6 | 0.00 | 0.00 | 0.00 | 47 | 1020.4 |
| 20260502101519 | 45 | 135 | 2.6 | 3.5 | 0.00 | 0.00 | 0.00 | 44 | 1020.6 |
| 20260502100518 | 45 | 135 | 2.6 | 3.5 | 0.00 | 0.00 | 0.00 | 45 | 1020.3 |
| 20260502091518 | 44 | 135 | 0.9 | 2.6 | 0.00 | 0.00 | 0.00 | 48 | 1020.0 |
| 20260502090518 | 44 | 135 | 1.7 | 3.5 | 0.00 | 0.00 | 0.00 | 48 | 1019.9 |
| 20260502071519 | 46 | 135 | 2.6 | 3.5 | 0.00 | 0.00 | 0.00 | 49 | 1019.9 |
| 20260502070518 | 46 | 135 | 2.6 | 3.5 | 0.00 | 0.00 | 0.00 | 50 | 1020.2 |
| 20260502065518 | 46 | 0.0 | 0.0 | 0.00 | 0.00 | 0.00 | 51 | 1019.9 | |
| 20260502064518 | 46 | 135 | 1.7 | 3.5 | 0.00 | 0.00 | 0.00 | 52 | 1020.2 |
| 20260502063539 | 46 | 135 | 0.9 | 2.6 | 0.00 | 0.00 | 0.00 | 52 | 1020.4 |
| 20260502062518 | 46 | 135 | 0.9 | 2.6 | 0.00 | 0.00 | 0.00 | 52 | 1020.1 |
| 20260502061518 | 46 | 135 | 1.7 | 3.5 | 0.00 | 0.00 | 0.00 | 52 | 1020.1 |
| 20260502060517 | 47 | 0.0 | 0.0 | 0.00 | 0.00 | 0.00 | 53 | 1019.7 | |
| 20260502055519 | 47 | 0.0 | 0.0 | 0.00 | 0.00 | 0.00 | 53 | 1019.8 | |
| 20260502054518 | 47 | 135 | 0.9 | 2.6 | 0.00 | 0.00 | 0.00 | 52 | 1019.6 |
| 20260502053519 | 47 | 135 | 2.6 | 4.3 | 0.00 | 0.00 | 0.00 | 53 | 1019.3 |
| 20260502052519 | 47 | 0.0 | 0.0 | 0.00 | 0.00 | 0.00 | 54 | 1019.0 | |
| 20260502051539 | 47 | 0.0 | 0.0 | 0.00 | 0.00 | 0.00 | 54 | 1019.2 | |
| 20260502050519 | 47 | 0.0 | 0.0 | 0.00 | 0.00 | 0.00 | 54 | 1018.8 | |
| 20260502045519 | 48 | 0.0 | 0.0 | 0.00 | 0.00 | 0.00 | 53 | 1018.8 | |
| 20260502044519 | 48 | 0.0 | 0.0 | 0.00 | 0.00 | 0.00 | 52 | 1018.7 | |
| 20260502043519 | 49 | 0.0 | 0.0 | 0.00 | 0.00 | 0.00 | 51 | 1018.7 | |
| 20260502042518 | 49 | 0.0 | 0.0 | 0.00 | 0.00 | 0.00 | 51 | 1018.6 | |
| 20260502041519 | 50 | 0.0 | 0.0 | 0.00 | 0.00 | 0.00 | 50 | 1018.3 | |
| 20260502040519 | 50 | 0.0 | 0.0 | 0.00 | 0.00 | 0.00 | 49 | 1018.2 | |
| 20260502035519 | 50 | 0.0 | 0.0 | 0.00 | 0.00 | 0.00 | 48 | 1018.0 | |
| 20260502034600 | 51 | 0.0 | 0.0 | 0.00 | 0.00 | 0.00 | 47 | 1017.9 | |
| 20260502033518 | 52 | 0.0 | 0.0 | 0.00 | 0.00 | 0.00 | 45 | 1017.9 | |
| 20260502032540 | 53 | 0.0 | 0.0 | 0.00 | 0.00 | 0.00 | 43 | 1017.7 | |
| 20260502031519 | 55 | 0.0 | 0.0 | 0.00 | 0.00 | 0.00 | 41 | 1017.7 | |
| 20260502030518 | 56 | 0.0 | 0.0 | 0.00 | 0.00 | 0.00 | 39 | 1017.5 | |
| 20260502025518 | 58 | 0.0 | 0.0 | 0.00 | 0.00 | 0.00 | 38 | 1017.8 | |
| 20260502024518 | 59 | 0.0 | 0.0 | 0.00 | 0.00 | 0.00 | 36 | 1017.8 | |
| 20260502023519 | 60 | 0.0 | 0.0 | 0.00 | 0.00 | 0.00 | 35 | 1017.4 | |
| 20260502022518 | 60 | 0.0 | 0.0 | 0.00 | 0.00 | 0.00 | 33 | 1017.3 | |
| 20260502021519 | 61 | 248 | 0.9 | 2.6 | 0.00 | 0.00 | 0.00 | 32 | 1017.2 |
| 20260502020518 | 62 | 248 | 0.9 | 2.6 | 0.00 | 0.00 | 0.00 | 31 | 1017.1 |
| 20260502015518 | 62 | 225 | 0.9 | 2.6 | 0.00 | 0.00 | 0.00 | 31 | 1016.7 |
| 20260502014518 | 63 | 248 | 1.7 | 5.2 | 0.00 | 0.00 | 0.00 | 30 | 1016.6 |
| 20260502013539 | 64 | 248 | 1.7 | 7.0 | 0.00 | 0.00 | 0.00 | 29 | 1016.5 |
| 20260502012519 | 64 | 315 | 1.7 | 6.1 | 0.00 | 0.00 | 0.00 | 29 | 1016.5 |
| 20260502011538 | 64 | 293 | 1.7 | 3.5 | 0.00 | 0.00 | 0.00 | 28 | 1016.5 |
| 20260502010519 | 64 | 270 | 1.7 | 5.2 | 0.00 | 0.00 | 0.00 | 28 | 1016.6 |
| 20260502005539 | 65 | 270 | 2.6 | 7.0 | 0.00 | 0.00 | 0.00 | 27 | 1017.0 |
| 20260502004518 | 66 | 293 | 1.7 | 4.3 | 0.00 | 0.00 | 0.00 | 28 | 1017.2 |
| 20260502003518 | 65 | 270 | 2.6 | 6.1 | 0.00 | 0.00 | 0.00 | 28 | 1016.9 |
| 20260502002518 | 65 | 270 | 3.5 | 8.7 | 0.00 | 0.00 | 0.00 | 27 | 1016.9 |
| 20260502001519 | 66 | 270 | 2.6 | 7.8 | 0.00 | 0.00 | 0.00 | 26 | 1017.4 |
| 20260502000518 | 67 | 248 | 1.7 | 6.1 | 0.00 | 0.00 | 0.00 | 26 | 1017.4 |
| 20260501235539 | 66 | 270 | 2.6 | 7.0 | 0.00 | 0.00 | 0.00 | 25 | 1017.4 |
| 20260501234518 | 67 | 248 | 2.6 | 6.1 | 0.00 | 0.00 | 0.00 | 25 | 1017.5 |
| 20260501233518 | 67 | 293 | 2.6 | 6.1 | 0.00 | 0.00 | 0.00 | 25 | 1017.5 |
| 20260501232539 | 67 | 293 | 2.6 | 7.8 | 0.00 | 0.00 | 0.00 | 24 | 1017.4 |
| 20260501231517 | 67 | 270 | 1.7 | 5.2 | 0.00 | 0.00 | 0.00 | 24 | 1017.4 |
| 20260501230518 | 69 | 293 | 2.6 | 7.8 | 0.00 | 0.00 | 0.00 | 23 | 1018.3 |
| 20260501225538 | 69 | 293 | 0.9 | 3.5 | 0.00 | 0.00 | 0.00 | 25 | 1018.3 |
| 20260501224518 | 69 | 23 | 1.7 | 4.3 | 0.00 | 0.00 | 0.00 | 23 | 1018.4 |
| 20260501223518 | 66 | 293 | 3.5 | 7.0 | 0.00 | 0.00 | 0.00 | 25 | 1017.9 |
| 20260501222518 | 67 | 270 | 2.6 | 7.0 | 0.00 | 0.00 | 0.00 | 23 | 1018.4 |
| 20260501221518 | 69 | 68 | 1.7 | 5.2 | 0.00 | 0.00 | 0.00 | 23 | 1018.8 |
| 20260501220518 | 67 | 248 | 2.6 | 6.1 | 0.00 | 0.00 | 0.00 | 22 | 1018.6 |
| 20260501215518 | 66 | 248 | 2.6 | 7.0 | 0.00 | 0.00 | 0.00 | 23 | 1018.8 |
| 20260501214518 | 67 | 225 | 1.7 | 6.1 | 0.00 | 0.00 | 0.00 | 23 | 1019.2 |
| 20260501213518 | 68 | 248 | 1.7 | 2.6 | 0.00 | 0.00 | 0.00 | 22 | 1019.4 |
| 20260501212518 | 67 | 270 | 2.6 | 7.0 | 0.00 | 0.00 | 0.00 | 23 | 1019.3 |
| 20260501211518 | 66 | 225 | 3.5 | 8.7 | 0.00 | 0.00 | 0.00 | 22 | 1019.4 |
| 20260501210538 | 66 | 270 | 2.6 | 6.1 | 0.00 | 0.00 | 0.00 | 23 | 1019.4 |
| 20260501205518 | 66 | 225 | 3.5 | 7.0 | 0.00 | 0.00 | 0.00 | 22 | 1019.3 |
| 20260501204518 | 67 | 293 | 1.7 | 6.1 | 0.00 | 0.00 | 0.00 | 24 | 1019.6 |
| 20260501203517 | 66 | 248 | 3.5 | 7.0 | 0.00 | 0.00 | 0.00 | 21 | 1019.8 |
| 20260501202517 | 67 | 270 | 1.7 | 6.1 | 0.00 | 0.00 | 0.00 | 21 | 1020.1 |
| 20260501201520 | 66 | 248 | 1.7 | 6.1 | 0.00 | 0.00 | 0.00 | 23 | 1019.7 |
| 20260501200540 | 65 | 270 | 1.7 | 5.2 | 0.00 | 0.00 | 0.00 | 22 | 1019.8 |
| 20260501195518 | 66 | 248 | 1.7 | 2.6 | 0.00 | 0.00 | 0.00 | 20 | 1020.2 |
| 20260501194518 | 65 | 248 | 1.7 | 6.1 | 0.00 | 0.00 | 0.00 | 23 | 1020.2 |
| 20260501193540 | 65 | 270 | 2.6 | 7.8 | 0.00 | 0.00 | 0.00 | 21 | 1020.3 |
| 20260501192519 | 65 | 248 | 1.7 | 4.3 | 0.00 | 0.00 | 0.00 | 20 | 1020.3 |
| 20260501191517 | 64 | 270 | 2.6 | 6.1 | 0.00 | 0.00 | 0.00 | 23 | 1020.4 |
| 20260501190519 | 65 | 270 | 1.7 | 5.2 | 0.00 | 0.00 | 0.00 | 22 | 1020.9 |
| 20260501185517 | 64 | 270 | 0.9 | 2.6 | 0.00 | 0.00 | 0.00 | 23 | 1021.0 |
| 20260501184518 | 65 | 68 | 1.7 | 4.3 | 0.00 | 0.00 | 0.00 | 21 | 1021.0 |
| 20260501183519 | 66 | 68 | 1.7 | 3.5 | 0.00 | 0.00 | 0.00 | 21 | 1021.5 |
| 20260501182519 | 65 | 68 | 0.9 | 4.3 | 0.00 | 0.00 | 0.00 | 24 | 1021.7 |
| 20260501181520 | 64 | 90 | 3.5 | 7.8 | 0.00 | 0.00 | 0.00 | 24 | 1021.4 |
| 20260501180517 | 63 | 315 | 1.7 | 3.5 | 0.00 | 0.00 | 0.00 | 24 | 1021.4 |
| 20260501175540 | 62 | 315 | 1.7 | 4.3 | 0.00 | 0.00 | 0.00 | 25 | 1021.2 |
| 20260501174519 | 61 | 45 | 1.7 | 5.2 | 0.00 | 0.00 | 0.00 | 28 | 1021.1 |
| 20260501173519 | 60 | 248 | 2.6 | 4.3 | 0.00 | 0.00 | 0.00 | 27 | 1021.2 |
| 20260501172540 | 60 | 270 | 1.7 | 3.5 | 0.00 | 0.00 | 0.00 | 28 | 1021.1 |
| 20260501171519 | 59 | 270 | 0.9 | 5.2 | 0.00 | 0.00 | 0.00 | 30 | 1021.1 |
| 20260501170519 | 58 | 0.0 | 1.7 | 0.00 | 0.00 | 0.00 | 33 | 1021.2 | |
| 20260501165539 | 57 | 270 | 0.9 | 1.7 | 0.00 | 0.00 | 0.00 | 37 | 1020.9 |
| 20260501164519 | 57 | 270 | 0.9 | 2.6 | 0.00 | 0.00 | 0.00 | 37 | 1020.5 |
| 20260501163518 | 56 | 270 | 0.9 | 2.6 | 0.00 | 0.00 | 0.00 | 37 | 1020.5 |
| 20260501162519 | 55 | 293 | 0.9 | 2.6 | 0.00 | 0.00 | 0.00 | 39 | 1020.2 |
| 20260501161519 | 54 | 0.0 | 0.9 | 0.00 | 0.00 | 0.00 | 41 | 1019.8 | |
| 20260501160519 | 53 | 293 | 0.9 | 4.3 | 0.00 | 0.00 | 0.00 | 41 | 1019.8 |
| 20260501155519 | 53 | 293 | 0.9 | 2.6 | 0.00 | 0.00 | 0.00 | 42 | 1019.9 |
| 20260501154519 | 52 | 0.0 | 2.6 | 0.00 | 0.00 | 0.00 | 46 | 1019.5 | |
| 20260501153520 | 51 | 0.0 | 0.0 | 0.00 | 0.00 | 0.00 | 47 | 1019.5 | |
| 20260501152539 | 50 | 0.0 | 0.0 | 0.00 | 0.00 | 0.00 | 48 | 1019.4 | |
| 20260501151519 | 49 | 0.0 | 0.0 | 0.00 | 0.00 | 0.00 | 49 | 1019.5 | |
| 20260501150539 | 47 | 0.0 | 0.0 | 0.00 | 0.00 | 0.00 | 52 | 1019.2 |